Weather History for LEJR - January, 2014

Change the Weather History Date:

Friday, January 10, 2014

  Actual Average Record
Temperature  
Mean Temperature 54 °F -  
Max Temperature 63 °F 60 °F 68 °F (1998)
Min Temperature 44 °F 40 °F 24 °F (2009)
Degree Days  
Heating Degree Days 12    
Growing Degree Days 4 (Base 50)    
Moisture  
Dew Point 49 °F    
Average Humidity 90    
Maximum Humidity 100    
Minimum Humidity 62    
Precipitation  
Precipitation 0.00 in 0.12 in - ()
Sea Level Pressure  
Sea Level Pressure 29.92 in    
Wind  
Wind Speed 2 mph ()    
Max Wind Speed 8 mph    
Max Gust Speed -    
Visibility 12.7 miles    
Events      
Averages and records for this station are not official NWS values.
T = Trace of Precipitation, MM = Missing Value Source: Averaged Metar Reports

Daily Weather History Graph

Daily Weather History Graph

Search for Another Location

Airport or City:

Trip Planner

Search our weather history database for the weather conditions in past years. The results will help you decide how hot, cold, wet, or windy it might be!

Date:

Astronomy

Jan. 10, 2014 Rise Set
Actual Time 8:37 AM CET 6:26 PM CET
Civil Twilight 8:08 AM CET 6:55 PM CET
Nautical Twilight 7:36 AM CET 7:27 PM CET
Astronomical Twilight 7:05 AM CET 7:58 PM CET
Moon 2:19 PM CET (1/10) 3:33 AM CET (1/10)
Length of Visible Light 10h 46m
Length of Day
9h 49m
Waxing Gibbous, 73% of the Moon is Illuminated
Jan 10
Waxing Gibbous
Jan 16
Full
Jan 24
Last Quarter
Jan 30
New
Feb 6
First Quarter

Hourly Weather History & Observations

Time (CET) Temp. Windchill Dew Point Humidity Pressure Visibility Wind Dir Wind Speed Gust Speed Precip Events Conditions
2:00 AM 45 °F - 45 °F 100% 29.97 in - NNE 2.3 mph - -  
3:00 AM 46 °F - 46 °F 98% 29.95 in - North 2.3 mph - -  
4:00 AM 46 °F - 46 °F 100% 29.94 in 12 mi North 2.3 mph - -   Overcast
4:30 AM 46.4 °F - 44.6 °F 93% 29.92 in - Calm Calm - N/A   Clear
5:00 AM 45 °F - 45 °F 100% 29.94 in - Calm Calm - -  
5:00 AM 44.6 °F - 44.6 °F 100% 29.92 in - Calm Calm - N/A   Clear
5:30 AM 46.4 °F - 44.6 °F 93% 29.89 in - Calm Calm - N/A   Clear
6:00 AM 44 °F - 44 °F 100% 29.91 in - NNE 1.2 mph - -  
6:00 AM 44.6 °F - 44.6 °F 100% 29.89 in - Calm Calm - N/A   Clear
6:30 AM 44.6 °F - 44.6 °F 100% 29.89 in - Variable 1.2 mph - N/A   Clear
7:00 AM 45 °F - 45 °F 100% 29.90 in 12 mi Calm Calm - -   Clear
7:00 AM 44.6 °F - 44.6 °F 100% 29.89 in - Calm Calm - N/A   Clear
7:30 AM 46.4 °F - 46.4 °F 100% 29.89 in - Variable 1.2 mph - N/A   Clear
8:00 AM 45 °F - 45 °F 98% 29.92 in - SW 2.3 mph - -  
8:00 AM 44.6 °F - 44.6 °F 100% 29.89 in - Variable 1.2 mph - N/A   Clear
8:30 AM 46.4 °F 45.2 °F 46.4 °F 100% 29.92 in - West 3.5 mph - N/A   Clear
9:00 AM 46 °F - 46 °F 99% 29.94 in - NW 4.6 mph - -  
9:00 AM 46.4 °F - 44.6 °F 93% 29.92 in - Variable 1.2 mph - N/A   Clear
9:30 AM 46.4 °F - 46.4 °F 100% 29.92 in - Variable 2.3 mph - N/A   Clear
10:00 AM 49 °F - 48 °F 95% 29.94 in 31 mi North 2.3 mph - -   Partly Cloudy
10:00 AM 48.2 °F - 46.4 °F 93% 29.92 in - North 3.5 mph - N/A   Clear
10:30 AM 50.0 °F - 48.2 °F 94% 29.95 in - Calm Calm - N/A   Clear
11:00 AM 51 °F - 50 °F 94% 29.97 in - Calm Calm - -  
11:00 AM 50.0 °F - 48.2 °F 94% 29.95 in - Calm Calm - N/A   Clear
11:30 AM 51.8 °F - 50.0 °F 94% 29.95 in - Variable 1.2 mph - N/A   Clear
12:00 PM 53 °F - 50 °F 87% 29.95 in - North 8.1 mph - -  
12:00 PM 53.6 °F - 50.0 °F 88% 29.92 in - NNE 8.1 mph - N/A   Clear
12:30 PM 53.6 °F - 50.0 °F 88% 29.92 in - North 4.6 mph - N/A   Clear
1:00 PM 54 °F - 51 °F 88% 29.93 in 12 mi North 5.8 mph - -   Overcast
1:00 PM 53.6 °F - 50.0 °F 88% 29.92 in - North 5.8 mph - N/A   Clear
1:30 PM 55.4 °F - 51.8 °F 88% 29.92 in - Variable 2.3 mph - N/A   Clear
2:00 PM 57 °F - 53 °F 81% 29.92 in - NNW 2.3 mph - -  
2:00 PM 57.2 °F - 51.8 °F 82% 29.92 in - Variable 1.2 mph - N/A   Clear
2:30 PM 57.2 °F - 53.6 °F 88% 29.89 in - NNE 3.5 mph - N/A   Clear
3:00 PM 60 °F - 54 °F 76% 29.89 in - North 1.2 mph - -  
3:00 PM 59.0 °F - 53.6 °F 82% 29.86 in - Variable 1.2 mph - N/A   Clear
3:30 PM 60.8 °F - 51.8 °F 72% 29.89 in - Calm Calm - N/A   Clear
4:00 PM 62 °F - 52 °F 62% 29.89 in 16 mi ENE 2.3 mph - -   Overcast
4:00 PM 62.6 °F - 51.8 °F 68% 29.89 in - Variable 2.3 mph - N/A   Clear
4:30 PM 60.8 °F - 53.6 °F 77% 29.89 in - North 3.5 mph - N/A   Clear
5:00 PM 60 °F - 53 °F 70% 29.90 in - North 5.8 mph - -  
5:00 PM 59.0 °F - 53.6 °F 82% 29.89 in - North 4.6 mph - N/A   Clear
5:30 PM 59.0 °F - 53.6 °F 82% 29.89 in - NNE 6.9 mph - N/A   Clear
6:00 PM 58 °F - 53 °F 80% 29.91 in - North 5.8 mph - -  
6:00 PM 57.2 °F - 53.6 °F 88% 29.89 in - North 4.6 mph - N/A   Clear
6:30 PM 57.2 °F - 51.8 °F 82% 29.89 in - North 6.9 mph - N/A   Clear
7:00 PM 56 °F - 52 °F 83% 29.91 in 16 mi North 4.6 mph - -   Mostly Cloudy
7:00 PM 55.4 °F - 51.8 °F 88% 29.89 in - North 4.6 mph - N/A   Clear
7:30 PM 55.4 °F - 51.8 °F 88% 29.92 in - Calm Calm - N/A   Clear
8:00 PM 54 °F - 52 °F 89% 29.93 in - NNW 1.2 mph - -  
8:00 PM 55.4 °F - 51.8 °F 88% 29.92 in - Calm Calm - N/A   Clear
8:30 PM 53.6 °F - 51.8 °F 94% 29.92 in - North 3.5 mph - N/A   Clear
9:00 PM 54 °F - 52 °F 91% 29.94 in - NNW 1.2 mph - -  
9:00 PM 53.6 °F - 51.8 °F 94% 29.92 in - Variable 2.3 mph - N/A   Clear
9:30 PM 53.6 °F - 51.8 °F 94% 29.92 in - Calm Calm - N/A   Clear
10:00 PM 53 °F - 52 °F 93% 29.96 in 16 mi NW 2.3 mph - -   Partly Cloudy
10:00 PM 53.6 °F - 51.8 °F 94% 29.95 in - Calm Calm - N/A   Clear
10:30 PM 50.0 °F - 50.0 °F 100% 29.95 in - Variable 2.3 mph - N/A   Clear
11:00 PM 51 °F - 51 °F 100% 29.97 in - Calm Calm - -  
11:00 PM 51.8 °F - 50.0 °F 94% 29.95 in 5.0 mi Calm Calm - N/A   Unknown